User: anonymous
Location: South Tamworth Observatory
(43.8246°N, 71.3026°W)
Time: 07:40:10
(UTC-04:00)
Language:

Cosmos 2208 Rocket - Orbit

View from above orbital plane
View from above orbital plane
View from above satellite
View from above satellite

Ground track
Ground track

The orbit data is extracted from the following two-line orbital elements,

1 22081U 92053B   14244.45450432  .00000074  00000-0  36093-4 0  6560
2 22081 074.0449 140.3202 0036227 357.7579 002.3404 14.33094254152745
Epoch (UTC): 01 September 2014 10:54:29
Eccentricity: 0.0036227
inclination: 74.0449°
perigee height: 755 km
apogee height: 807 km
right ascension of ascending node: 140.3202°
argument of perigee: 357.7579°
revolutions per day: 14.33094254
mean anomaly at epoch: 2.3404°
orbit number at epoch: 15274

The dashed part of the orbit path shows where the satellite is in the earth's shadow,  

DLR